星链-4572 (STARLINK-4572 )

导读

STARLINK-4572是美国太空探索技术公司(SpaceX)星链(Starlink)卫星互联网星座中的一颗卫星,由美国在2022年8月31日发射升空,属于星链项目Group 4批次的组网卫星,主要为全球范围内提供高速互联网接入服务,依托星链星座部署,可服务偏远地区通信、移动网络连接等多场景。

基本信息
目录编号:
53692
目录名称:
STARLINK-4572
国际标识:
2022-105AW
轨道中心:
EARTH
卫星名称:
星链-4572
卫星全名:
星链-4572 (STARLINK-4572 )
卫星状态:
在轨 (已飞行1382 天)
发射日期:
2022-08-31 UTC
国别 :
美国 (US)
星等 :
--
轨道信息
数据来源 国际轨道数据
星历时间: 2026-06-13T13:22:45+0800
14小时前
查看轨道信息
半长轴: 6864.104km
偏心率: 0.0001925
轨道倾角: 97.609°
近地点辐角 97.016°
升交点赤经 52.585°
平近点角 263.129°
近地点: 484.645km
远地点: 487.289km
周期: 94.327分钟
每日圈数: 15.266061
详细信息
固有亮度:
5
最大亮度:
2.5
卫星平台:
Starlink v1.5
覆盖范围:
全球
运营商:
太空探索技术公司
运营商所在国:
美国
制造商(研发单位):
太空探索技术公司
制造商所在国:
美国
使用方式:
暂无
卫星简介
星链(Starlink)计划是由太空探索技术公司(SpaceX)提出的一个巨型低轨卫星互联网星座项目,计划在2019年至2024年间在太空搭建由约1.2万颗卫星组成的“星链”网络,其中1584颗将部署在地球上空550千米处的近地轨道,并从2020年开始工作。该卫星仍在工作。
2D轨道图
3D轨道图
轨道高度分析图
轨道倾角分析图
轨道综合分析图
查看轨道综合分析图